Regional Weather Roundup
Issued by NWS

Home | Current Version | Previous Version | Graphics & Text | Print | Product List | Glossary On
Versions: 1 2 3 4 5 6 7 8 9 10 11 12 13 14 15 16 17 18 19 20 21 22 23 24 25 26 27 28 29 30 31 32 33 34 35 36 37 38 39 40 41 42 43 44 45 46 47 48 49 50
000
ASUS43 KDMX 300107
RWRIA

WEATHER ROUNDUP FOR IOWA
NATIONAL WEATHER SERVICE DES MOINES IA
800 PM CDT FRI AUG 29 2014

NOTE: "FAIR" INDICATES FEW OR NO CLOUDS BELOW 12,000 FEET WITH NO
SIGNIFICANT WEATHER AND/OR OBSTRUCTIONS TO VISIBILITY.

* - THESE STATIONS ARE NOT NWS STATIONS...THUS NOT UNDER NWS
QUALITY CONTROL.  THEY ALSO DO NOT REPORT WEATHER SUCH
AS PRECIPITATION OR FOG.

IAZ001>003-012>014-020>022-031>034-043>046-300200-
   NORTHWEST IOWA

CITY           SKY/WX    TMP DP  RH WIND       PRES   REMARKS
CARROLL *      LGT RAIN  66  64  94 CALM      29.77S
CHEROKEE *     RAIN      68  68 100 CALM      29.78R
DENISON *      CLOUDY    66  66 100 W6        29.77S
LE MARS *      PTCLDY    70  68  94 CALM      29.79R
ORANGE CITY *  PTCLDY    70  66  88 CALM      29.79R
SHELDON *      PTCLDY    66  66 100 N5        29.78F
SIOUX CITY     LGT RAIN  72  70  93 S3        29.77F
SPENCER        LGT RAIN  68  67  96 NW3       29.78S
STORM LAKE *   LGT RAIN  66  66 100 SW6       29.79S
$$

IAZ055>058-069>071-079>083-090>094-300200-
   SOUTHWEST IOWA

CITY           SKY/WX    TMP DP  RH WIND       PRES   REMARKS
ATLANTIC *     MOCLDY    68  66  94 NW3       29.79S
AUDUBON *      DRIZZLE   68  66  94 SW3       29.80S
CLARINDA *     PTCLDY    73  72  94 CALM      29.81R
COUNCIL BLFS * PTCLDY    70  70 100 CALM      29.79R
CRESTON *      MOCLDY    68  66  94 SW7       29.81R
HARLAN  *      LGT RAIN  66  66 100 CALM      29.83R
LAMONI         PTCLDY    72  68  87 S6        29.79F
RED OAK *      CLOUDY    72  66  83 CALM      29.79S
SHENANDOAH *   PTCLDY    72  72 100 CALM      29.79S
$$

IAZ047>049-059>061-072>074-084-300200-
   CENTRAL IOWA

CITY           SKY/WX    TMP DP  RH WIND       PRES   REMARKS
AMES           CLOUDY    70  66  87 SW6       29.77S
ANKENY *       CLOUDY    72  70  94 S3        29.77S
CHARITON *     PTCLDY    70  68  94 S6        29.80S
DES MOINES     MOCLDY    72  69  90 S7        29.77S
GRINNELL*      CLOUDY    70  66  88 S5        29.80R
KNOXVILLE *    CLOUDY    70  66  88 S5        29.78S
MARSHALLTOWN   CLOUDY    69  68  96 SE3       29.77S
PELLA *        CLOUDY    70  68  94 S3        29.80S FOG
PERRY *        MOCLDY    70  68  94 S3        29.77F
$$

IAZ004>006-015-016-023>025-035-036-300200-
   NORTH CENTRAL IOWA

CITY           SKY/WX    TMP DP  RH WIND       PRES   REMARKS
ALGONA *       CLOUDY    73  72  94 CALM      29.77F
CLARION *      CLOUDY    68  68 100 S5        29.78S
ESTHERVILLE    CLOUDY    68  67  96 W3        29.77S
FORT DODGE *   CLOUDY    68  66  94 CALM      29.78S
MASON CITY     LGT RAIN  68  68 100 CALM      29.80R FOG
FOREST CITY *  RAIN      70  70 100 SE6       29.79R
IOWA FALLS *   CLOUDY    70  68  94 CALM      29.79S
$$

IAZ007>011-017>019-026>030-037>042-050>054-066-300200-
   NORTHEAST IOWA

CITY           SKY/WX    TMP DP  RH WIND       PRES   REMARKS
CEDAR RAPIDS   MOCLDY    69  69 100 S6        29.78F
CHARLES CITY * MOCLDY    66  64  94 CALM      29.79F
CLINTON *      CLOUDY    79  72  78 SE13      29.82F HX  82
DECORAH *      CLOUDY    68  66  94 CALM      29.79F
DUBUQUE        CLOUDY    76  70  82 S14       29.80F
MONTICELLO *   PTCLDY    72  68  88 SW3       29.79S
OELWEIN *      CLOUDY    68  68 100 S6        29.80S
WATERLOO       LGT RAIN  70  65  84 CALM      29.78R
$$

IAZ064-065-067-068-078-300200-
   EAST CENTRAL IOWA

CITY           SKY/WX    TMP DP  RH WIND       PRES   REMARKS
DAVENPORT      LGT RAIN  79  69  71 S10       29.80F HX  81
IOWA CITY      MOCLDY    72  68  87 CALM      29.79F
MT. PLEASANT * MOCLDY    72  70  94 SE3       29.80F
MUSCATINE *    MOCLDY    75  68  78 S7        29.80S
QUAD CITIES    RAIN      78  71  79 S12       29.80F HX  80
$$

IAZ062-063-075>077-085>089-095>099-300200-
   SOUTHEAST IOWA

CITY           SKY/WX    TMP DP  RH WIND       PRES   REMARKS
BURLINGTON     CLOUDY    72  71  97 S7        29.82F
FAIRFIELD *    CLOUDY    73  70  88 S6        29.80F
FORT MADISON * PTCLDY    73  73 100 SE6       29.83S
KEOKUK *       PTCLDY    73  73 100 SE6       29.82S
OSKALOOSA *    CLOUDY    70  70 100 S5        29.80S
CENTERVILLE *  CLEAR     70  70 100 CALM      29.82F
OTTUMWA        CLOUDY    70  69  97 S7        29.79
WASHINGTON *   CLOUDY    72  72 100 S7        29.79F
$$

ABBREVIATIONS USED IN REMARKS
   TC - TEMPERATURES IN CELSIUS
  WCI - WIND CHILL INDEX
   HX - HEAT INDEX
  VSB - VISIBILITY
$$



USA.gov is the U.S. government's official web portal to all federal, state and local government web resources and services.